Вернуться в каталог

USA 430

АктивенВоенныеVLEO
NORAD 61653·PAYLOAD·🇺🇸 United States

Запущен Oct 24, 2024 с Vandenberg Space Force Base

Loading…

Ближайшие Пролёты (ближайшие 24 часа)

TLE

УстаревшееSource: Mike McCants

Эпоха: Aug 12, 2026, 20:23 UTC

1 61653U 24192K   26224.84937067 0.00000000  00000-0  00000-0 0    02
2 61653  70.0223 124.5852 0003000 170.6993 189.3007 14.96713560    02

Отслеживайте USA 430 в реальном времени с AllMySat

Download on the App Store